EHI
1 1 1 0 0 0 0 0 0 0 0 0 0 0 0 0 0 0 0 0 0 0 0 0 0 0 0 0 0 0 0 0 0 0 0 0 0 0 0 0 0 0 0
1 1 0 0 0 0 0 0 0 0 0 0 0 0 0 0 0 0 0 0 0 0 0 0 0 0 0 0 0 0 0 0 0 0 0 0 0 0 0 0 0 0 0
2 1 0 0 0 0 0 0 0 0 0 0 0 0 0 0 0 0 0 0 0 0 0 0 0 0 0 0 0 0 0 0 0 0 0 0 0 0 0 0 0 0 0
3 2 1 0 0 0 0 0 0 0 0 0 0 0 0 0 0 0 0 0 0 0 0 0 0 0 0 0 0 0 0 0 0 0 0 0 0 0 0 0 0 0 0
3 3 2 0 0 0 0 0 0 0 0 0 0 0 0 0 0 0 0 0 0 0 0 0 0 0 0 0 0 0 0 0 0 0 0 0 0 0 0 0 0 0 0
3 2 1 0 0 0 0 0 0 0 0 0 0 0 0 0 0 0 0 0 0 0 0 0 0 0 0 0 0 0 0 0 0 0 0 0 0 0 0 0 0 0 0
2 3 1 0 0 0 0 0 0 0 0 0 0 0 0 0 0 0 0 0 0 0 0 0 0 0 0 0 0 0 0 0 0 0 0 0 0 0 0 0 0 0 0
3 3 2 0 0 0 0 0 0 0 0 0 0 0 0 0 0 0 0 0 0 0 0 0 0 0 0 0 0 0 0 0 0 0 0 0 0 0 0 0 0 0 0
2 2 1 0 0 0 0 0 0 0 0 0 0 0 0 0 0 0 0 0 0 0 0 0 0 0 0 0 0 0 0 0 0 0 0 0 0 0 0 0 0 0 0
1 2 1 0 0 0 0 0 0 0 0 0 0 0 0 0 0 0 0 0 0 0 0 0 0 0 0 0 0 0 0 0 0 0 0 0 0 0 0 0 0 0 0
1 3 3 1 0 0 0 0 0 0 0 0 0 0 0 0 0 0 0 0 0 0 0 0 0 0 0 0 0 0 0 0 0 0 0 0 0 0 0 0 0 0 0
2 4 5 3 2 0 0 0 0 0 0 0 0 0 0 0 0 0 0 0 0 0 0 0 0 0 0 0 0 0 0 0 0 0 0 0 0 0 0 0 0 0 0
2 4 6 6 4 2 0 0 0 0 0 0 0 0 0 0 0 0 0 0 0 0 0 0 0 0 0 0 0 0 0 0 0 0 0 0 0 0 0 0 0 0 0
2 3 4 5 5 3 1 0 1 0 0 0 0 0 0 0 0 0 0 0 0 0 0 0 0 0 0 0 0 0 0 0 0 0 0 0 0 0 0 0 0 0 0
2 2 2 2 3 3 1 0 0 0 0 0 0 0 0 0 0 0 0 0 0 0 0 0 0 0 0 0 0 0 0 0 0 0 0 0 0 0 0 0 0 0 0
1 1 1 1 2 2 1 0 0 0 0 0 0 0 0 0 0 0 0 0 0 0 0 0 0 0 0 0 0 0 0 0 0 0 0 0 0 0 0 0 0 0 0
1 1 1 1 1 1 0 0 0 0 0 0 0 0 0 0 0 0 0 0 0 0 0 0 0 0 0 0 0 0 0 0 0 0 0 0 0 0 0 0 0 0 0
1 1 1 0 0 0 0 0 0 0 0 0 0 0 0 0 0 0 0 0 0 0 0 0 0 0 0 0 0 0 0 0 0 0 0 0 0 0 0 0 0 0 0
1 0 0 0 0 0 0 0 0 0 0 0 0 0 0 0 0 0 0 0 0 0 0 0 0 0 0 0 0 0 0 0 0 0 0 0 0 0 0 0 0 0 0
1 0 0 0 0 0 0 0 0 0 0 0 0 0 0 0 0 0 0 0 0 0 0 0 0 0 0 0 0 0 0 0 0 0 0 0 0 0 0 0 0 0 0
1 0 0 0 0 0 0 0 0 0 0 0 0 0 0 0 0 0 0 0 0 0 0 0 0 0 0 0 0 0 0 0 0 0 0 0 0 0 0 0 0 0 0
1 0 0 0 0 0 0 0 0 0 0 0 0 0 0 0 0 0 0 0 0 0 0 0 0 0 0 0 0 0 0 0 0 0 0 0 0 0 0 0 0 0 0
0 0 0 0 0 0 0 0 0 0 0 0 0 0 0 0 0 0 0 0 0 0 0 0 0 0 0 0 0 0 0 0 0 0 0 0 0 0 0 0 0 0 0
0 0 0 0 0 0 0 0 0 0 0 0 0 0 0 0 0 0 0 0 0 0 0 0 0 0 0 0 0 0 0 0 0 0 0 0 0 0 0 0 0 0 0
0 0 0 0 0 0 0 0 0 0 0 0 0 0 0 0 0 0 0 0 0 0 0 0 0 0 0 0 0 0 0 0 0 0 0 0 0 0 0 0 0 0 0
0 0 0 0 0 0 0 0 0 0 0 0 0 0 0 0 0 0 0 0 0 0 0 0 0 0 0 0 0 0 0 0 0 0 0 0 0 0 0 0 0 0 0
Wind_Speed
8 7 6 5 5 4 4 3 3 3 3 3 3 2 2 2 2 2 3 3 3 3 3 4 4 4 3 2 2 2 2 2 2 2 2 4 5 6 5 5 4 4 4
8 8 7 6 5 5 4 4 4 3 3 3 2 2 2 2 2 2 3 2 3 3 4 4 4 3 4 3 3 3 2 3 3 3 3 4 5 5 6 5 4 4 4
9 8 8 7 6 5 5 4 4 4 4 3 3 2 2 2 2 2 2 2 2 3 3 4 4 4 4 3 3 3 2 2 2 2 3 3 3 4 4 4 5 4 4
9 9 8 8 7 6 5 5 5 4 4 3 3 3 2 2 2 2 2 2 2 2 3 3 4 4 4 4 3 3 2 2 2 2 2 3 3 4 4 4 4 4 4
10 9 9 8 7 6 6 5 5 4 4 4 3 3 2 1 1 1 1 1 1 2 2 3 4 5 7 6 4 4 3 2 2 2 2 3 3 3 4 4 4 4 3
11 10 8 8 8 7 6 6 5 5 4 4 4 3 3 2 3 1 1 1 1 1 1 2 2 2 3 3 4 5 6 4 4 3 2 3 4 4 4 4 4 4 3
11 9 9 9 8 8 7 6 6 6 5 4 4 4 3 3 4 3 2 2 1 0 0 0 1 1 1 1 1 2 0 2 4 5 4 4 5 4 4 4 4 5 4
10 10 9 9 9 8 8 7 7 6 5 4 4 3 3 4 5 4 3 4 2 1 1 1 1 0 2 3 2 2 2 1 3 4 4 4 5 5 5 5 5 5 4
11 10 10 10 9 9 8 8 7 6 5 5 4 4 4 5 5 5 5 3 2 2 1 1 2 1 2 5 4 3 3 1 1 2 4 4 5 4 5 4 4 4 4
11 11 10 10 10 9 9 8 6 6 5 5 4 4 4 4 5 5 6 3 2 2 2 2 1 2 2 5 5 4 4 3 3 2 3 4 4 2 4 5 4 4 4
10 10 10 10 9 9 8 7 6 6 5 5 5 4 4 3 6 6 5 4 3 3 2 2 1 2 3 4 6 4 4 6 5 4 3 3 3 3 3 3 4 4 5
9 9 10 10 8 8 8 7 7 6 6 5 5 4 3 4 4 5 6 6 5 4 3 3 1 2 4 5 5 3 5 7 5 4 3 3 3 3 3 4 4 4 5
9 10 9 10 9 8 8 8 7 6 5 5 4 4 4 3 4 5 6 6 6 5 3 2 2 3 6 6 5 6 6 5 4 4 4 3 3 4 4 4 5 5 6
10 9 9 9 9 8 7 7 6 6 5 5 4 4 4 4 3 4 4 5 6 6 5 3 5 6 6 5 5 5 5 4 4 4 4 4 4 4 4 4 4 4 5
9 9 9 8 8 7 7 5 6 6 5 5 4 4 4 4 3 3 3 4 3 3 4 4 4 4 4 4 4 4 4 4 4 4 4 4 4 4 4 4 4 5 5
8 8 7 6 6 6 6 5 2 2 3 4 3 4 4 3 2 4 5 4 3 3 4 5 4 4 5 4 4 4 4 4 4 4 5 5 5 5 5 5 5 5 6
7 7 6 6 6 6 6 6 5 4 3 4 5 5 4 3 4 5 5 5 5 6 5 5 5 5 4 4 5 5 5 5 4 5 5 5 5 5 5 6 5 6 6
7 6 6 6 6 6 6 6 6 6 5 5 5 7 6 5 6 6 6 5 5 6 6 6 5 5 5 5 5 5 5 5 5 5 5 5 5 6 6 6 6 7 7
6 5 5 5 5 6 6 6 6 6 5 4 4 5 7 6 7 7 7 6 5 5 6 6 6 5 5 5 5 5 6 6 6 6 6 6 5 6 6 6 6 7 8
5 5 5 5 5 5 6 6 5 6 5 5 5 4 4 5 5 5 6 6 6 6 6 6 6 6 6 6 5 5 6 6 6 6 6 6 6 6 7 8 7 7 7
4 5 7 5 5 5 5 6 5 5 5 5 5 4 6 6 6 6 6 6 6 6 6 6 6 6 6 5 5 7 8 7 6 6 6 6 6 6 6 7 7 8 8
4 5 5 5 5 5 5 5 5 5 6 6 4 4 7 6 5 5 5 6 6 6 6 6 6 6 5 6 6 6 7 7 7 7 7 7 6 7 7 7 7 7 8
4 4 5 5 5 5 5 5 5 5 5 5 5 4 5 5 5 5 5 5 5 5 5 5 6 6 6 6 6 6 7 7 7 7 7 7 7 7 7 8 9 9 9
4 4 5 4 4 5 5 5 5 5 5 5 5 5 5 5 5 5 5 4 4 4 5 5 6 8 9 7 6 6 6 6 6 6 9 8 8 7 7 7 8 9 9
3 4 4 4 4 5 5 5 5 5 5 5 4 4 4 4 4 4 4 4 5 5 6 6 5 7 9 10 9 7 5 5 6 6 6 7 8 8 8 8 8 8 9
3 3 3 3 4 4 4 4 4 4 4 4 4 4 4 4 4 4 4 4 4 4 5 5 6 8 9 8 8 8 6 6 7 7 6 6 7 7 7 7 9 8 9
Wind_Direction
184 182 176 172 165 167 164 159 153 149 148 141 125 115 102 89 79 79 63 62 45 48 38 36 29 18 8 7 3 356 347 332 315 336 354 360 357 359 2 360 8 11 54
184 182 176 169 166 171 164 160 165 158 153 146 133 124 103 91 78 70 70 62 50 45 39 33 32 27 19 14 6 5 8 350 327 335 345 356 0 4 360 355 4 15 17
181 181 178 178 175 173 168 166 170 166 159 158 152 137 121 111 99 84 76 71 57 48 41 37 33 29 28 32 16 16 16 14 346 331 350 355 352 359 355 359 7 5 359
180 183 184 182 179 177 173 173 175 171 169 166 156 149 139 126 110 104 97 83 73 66 55 48 41 31 25 25 24 22 18 19 4 345 348 353 357 355 345 350 353 0 354
181 185 186 181 176 177 173 174 173 173 178 170 166 161 150 152 104 95 117 100 83 80 74 61 55 44 29 16 10 8 4 359 3 356 353 346 352 350 351 341 340 336 348
185 187 179 177 173 176 178 176 170 174 183 180 183 176 168 146 104 82 290 151 133 106 93 87 94 84 71 64 36 18 3 356 355 352 344 342 342 344 337 324 334 331 334
184 177 176 178 174 176 176 174 175 180 184 189 190 183 178 140 139 159 252 256 207 206 217 123 75 66 301 45 133 189 99 1 333 326 335 337 330 336 323 321 326 325 323
182 177 176 179 175 174 176 176 182 183 179 191 191 189 182 159 161 177 222 236 221 215 237 256 260 303 17 333 319 317 331 352 328 314 330 333 332 328 316 311 309 306 298
184 182 178 178 176 175 177 180 183 183 181 188 183 186 193 178 169 187 228 224 224 225 236 269 288 295 38 308 294 301 302 303 179 260 316 317 318 313 308 297 307 306 312
186 184 178 178 177 178 178 179 179 180 183 187 184 193 196 194 164 191 233 236 232 228 229 224 217 314 331 297 290 298 302 317 311 275 250 245 264 244 251 283 305 303 309
180 177 174 176 179 178 173 174 176 178 183 193 189 196 202 200 174 189 224 248 248 247 242 237 186 194 272 282 287 297 318 309 295 292 293 292 290 301 301 302 308 301 301
173 172 174 175 173 171 169 172 177 178 186 194 197 196 207 199 202 193 211 239 274 256 254 255 207 191 251 263 271 297 294 281 279 284 285 288 294 303 308 308 302 294 294
170 173 174 172 173 172 171 171 175 183 195 200 204 209 209 208 191 196 212 225 243 258 267 304 286 236 247 241 236 261 267 267 277 279 283 290 299 302 300 295 292 291 290
172 174 174 174 174 174 176 180 182 188 197 202 208 215 216 212 212 205 210 212 215 235 248 227 223 235 246 264 251 240 251 269 280 279 284 287 289 284 280 285 289 289 287
174 176 175 176 176 177 180 186 195 195 201 207 210 212 218 224 215 219 237 231 231 240 251 243 244 242 245 250 254 257 257 251 254 265 273 276 276 277 279 282 286 288 287
176 176 175 174 176 178 178 179 180 217 180 203 224 236 222 225 183 194 217 232 226 220 237 245 249 254 259 262 261 258 257 260 265 267 270 274 276 277 279 275 272 276 282
180 175 174 178 177 180 184 190 190 187 194 203 206 219 233 199 186 194 201 210 209 207 232 249 254 256 259 262 263 263 263 263 265 263 264 268 272 275 275 275 274 274 276
182 176 177 182 185 187 191 198 200 199 198 203 200 203 209 208 203 200 193 198 213 218 238 249 255 258 259 258 261 263 264 262 259 260 263 266 269 272 273 275 275 277 280
182 178 182 187 190 192 195 200 204 208 212 209 203 190 198 207 209 203 198 225 234 233 237 246 253 257 257 259 260 262 262 262 261 262 263 266 269 271 273 274 277 280 278
186 173 180 186 190 193 196 200 204 209 212 214 216 208 188 201 213 207 214 231 240 244 244 246 249 252 254 256 258 259 260 261 263 261 264 264 265 268 271 274 277 277 275
187 177 181 194 199 200 199 203 206 209 214 219 222 206 195 212 220 222 222 230 238 244 247 249 250 250 250 253 254 257 261 262 261 262 262 263 265 267 270 272 273 275 279
193 191 194 199 199 202 206 209 211 214 216 221 226 204 194 219 227 229 232 236 240 245 250 251 253 253 250 248 251 256 260 263 262 262 264 265 265 266 268 269 271 275 278
200 199 199 201 202 195 206 212 214 217 219 221 220 215 208 222 230 235 240 246 248 249 252 252 254 255 253 252 250 253 258 261 263 264 264 263 263 265 266 268 270 274 276
200 204 204 202 203 207 211 214 216 219 224 225 224 222 222 225 232 239 245 249 252 253 254 255 257 259 261 261 257 254 258 266 270 266 263 264 264 263 263 264 267 271 275
197 203 207 208 208 210 213 216 219 220 221 224 226 229 231 231 236 243 250 252 257 259 261 262 263 265 267 266 264 263 260 256 260 268 263 261 262 263 264 266 268 273 275
195 202 209 212 214 215 216 218 220 221 223 226 230 232 232 236 242 246 252 256 260 263 265 265 267 272 274 271 272 274 259 244 244 254 260 259 261 260 263 265 269 271 273